Wind_Speed
53 56 59 60 61 61 61 61 60 57 51 47 47 47 46 43 41 38 36 35 35 36 37 38 40 41 43 44 46 47 50 53 56 59 60 61 62 62
58 61 62 62 62 61 61 59 58 55 49 43 42 42 42 40 37 34 32 31 31 32 34 35 36 39 40 42 44 46 47 51 54 57 58 59 61 62
62 62 62 62 60 58 57 54 51 49 46 40 38 37 38 36 33 30 28 28 28 29 30 31 33 35 37 39 41 43 45 47 50 53 56 57 58 59
62 62 60 59 56 53 50 48 46 44 41 36 33 33 33 32 29 27 25 25 26 27 27 28 30 31 33 35 37 39 41 43 46 49 52 54 55 56
61 59 56 53 49 47 44 43 41 39 37 32 28 28 28 27 24 23 23 23 23 24 25 26 28 29 31 33 35 36 39 41 43 46 49 51 52 54
57 54 50 46 43 41 39 37 36 34 31 27 23 23 23 22 20 20 20 20 20 20 22 23 25 27 29 31 33 35 37 39 41 42 45 47 49 50
50 47 44 41 38 36 34 32 30 27 24 21 19 18 19 18 17 16 16 16 17 18 19 20 22 25 27 29 31 33 36 38 39 40 42 43 45 47
44 41 39 37 34 31 29 27 24 21 18 17 14 14 14 14 13 12 12 12 13 14 16 18 20 21 23 24 25 26 29 32 35 37 39 41 43 45
39 37 35 33 30 26 24 21 18 15 13 11 10 10 10 10 10 9 9 9 10 10 12 14 14 15 16 16 17 19 21 24 29 33 36 38 41 43
35 33 31 28 25 21 18 15 12 9 8 7 8 8 8 9 8 6 5 5 5 6 7 7 8 9 9 10 10 10 11 15 22 30 35 37 39 42
32 29 26 22 19 16 12 9 7 5 5 7 8 8 8 8 6 5 3 1 2 3 3 5 7 7 8 7 4 2 4 11 20 28 32 35 38 41
28 24 20 16 13 10 6 4 4 6 8 9 9 8 8 7 5 4 2 2 3 5 7 9 10 11 11 9 7 9 12 18 24 29 32 35 38 41
22 18 14 10 7 4 2 5 8 10 11 10 10 9 9 7 6 5 5 6 8 10 11 13 14 15 16 15 15 17 20 24 28 31 34 36 39 42
16 12 8 4 1 3 7 10 12 13 13 12 11 10 9 8 7 7 8 10 12 14 15 16 18 19 21 22 22 24 26 28 30 32 35 38 41 42
10 6 4 3 6 9 11 14 15 15 14 12 11 10 9 9 9 10 12 14 15 16 17 18 20 22 23 24 26 29 30 31 32 34 36 39 42 44
5 4 5 8 11 13 15 17 17 16 14 13 11 10 10 11 12 14 16 18 19 19 20 21 23 24 25 26 28 29 31 33 34 34 35 37 40 42
5 7 9 12 15 16 18 18 17 15 14 12 11 11 12 13 15 17 19 20 21 21 21 22 24 25 25 25 26 28 30 31 31 32 33 34 36 36
8 9 12 15 16 18 18 17 16 14 13 12 12 13 14 16 18 20 21 21 22 21 21 21 22 23 23 24 24 25 25 25 26 29 29 29 29 31
9 11 14 16 17 18 18 17 15 13 13 13 13 14 15 18 20 21 22 22 22 21 20 21 22 23 22 21 22 23 24 24 24 25 25 25 25 24
10 12 15 17 18 18 18 16 14 13 13 13 14 15 17 19 20 21 21 21 21 20 19 19 20 21 22 20 19 19 21 23 24 24 23 24 23 23
11 13 15 17 18 18 17 16 15 14 14 14 15 16 18 19 20 21 21 20 19 19 17 16 16 16 18 19 17 16 16 17 19 21 22 22 23 23
12 13 15 16 17 17 17 16 15 13 13 14 15 17 18 19 19 20 19 18 17 16 15 14 12 11 12 15 17 16 16 16 16 18 20 22 24 24
12 13 14 15 16 17 16 15 15 14 13 14 15 17 18 18 18 17 16 15 14 13 12 12 11 10 9 11 15 17 17 18 18 18 19 20 22 23
Wind_Direction
301 301 301 300 299 297 296 295 293 291 289 285 280 277 275 272 268 268 267 265 262 260 256 253 252 250 248 247 245 244 243 241 239 238 238 237 236 234
302 301 300 299 298 297 296 294 293 291 288 283 278 274 270 267 266 265 264 262 260 258 255 254 253 251 249 248 247 245 244 242 240 239 238 237 236 235
302 301 300 299 298 296 295 293 291 289 288 282 276 270 265 262 263 262 261 259 258 258 257 256 255 253 252 251 250 248 246 244 241 239 238 237 237 236
302 301 300 299 298 296 294 292 290 289 287 281 274 267 260 258 258 258 258 258 258 258 258 257 256 255 255 253 251 248 246 243 241 238 236 236 235 233
303 302 301 300 298 296 294 292 290 289 286 280 271 261 256 254 253 253 256 258 257 258 258 258 258 257 256 255 252 249 246 243 241 238 234 233 231 229
305 304 303 301 299 296 294 293 290 288 284 277 267 255 250 249 248 250 254 256 257 258 260 261 260 260 260 258 256 253 249 245 241 236 232 230 228 225
306 305 304 303 301 297 294 292 290 286 281 273 261 249 244 244 246 248 250 254 256 260 262 264 265 267 267 265 261 257 253 247 241 236 229 225 222 219
308 306 306 304 302 298 295 292 288 283 276 267 254 240 236 237 238 240 247 252 257 263 269 274 277 275 275 271 267 262 254 245 237 230 223 219 215 211
309 308 307 305 302 299 295 292 285 277 267 253 236 228 224 224 223 230 241 251 262 274 281 287 287 288 288 281 272 263 254 243 229 219 213 209 206 203
311 310 308 306 303 299 294 288 279 265 248 224 209 203 199 198 203 216 230 251 275 294 304 308 310 312 310 302 288 270 253 230 211 202 199 197 195 194
313 311 308 306 303 298 290 280 262 231 196 176 171 173 176 181 187 191 201 251 314 336 2 11 9 3 355 344 326 251 178 170 173 176 179 181 182 183
314 312 310 306 302 297 279 245 198 169 159 158 158 161 161 160 157 153 144 101 73 76 69 55 48 41 31 42 74 111 127 140 149 156 162 167 172 173
317 316 315 311 304 291 205 164 152 148 148 151 151 150 148 145 136 126 117 107 100 95 86 75 68 64 61 70 87 107 120 131 140 147 153 157 162 165
322 323 325 326 333 141 143 141 139 138 140 142 141 138 135 131 124 118 115 115 110 104 95 87 81 79 77 80 92 105 116 125 133 142 148 152 156 160
332 343 11 81 116 128 132 134 133 135 137 138 134 128 125 122 119 118 119 119 116 110 105 99 94 91 88 88 95 103 111 119 126 134 143 149 154 157
7 49 89 110 122 127 131 133 132 133 134 131 126 121 119 120 121 123 123 121 117 113 110 109 103 99 97 97 99 103 109 114 120 127 135 143 149 154
56 91 108 119 126 129 133 133 133 131 127 121 117 117 117 119 124 127 125 123 119 115 112 111 109 105 105 104 105 107 110 115 121 127 133 140 146 151
85 105 117 126 129 133 133 132 131 127 120 114 113 116 118 122 126 127 127 124 120 117 117 115 112 110 110 111 113 115 118 123 129 135 139 141 144 149
92 112 124 129 132 135 134 133 129 123 117 112 112 116 120 125 129 129 127 123 119 118 118 119 119 116 114 117 121 125 129 132 138 143 147 151 153 155
95 116 127 132 134 135 135 133 129 121 116 112 113 117 121 126 130 131 129 124 120 119 120 122 124 124 124 125 129 133 138 143 146 149 152 155 160 166
101 118 129 135 138 138 137 135 131 124 117 114 114 119 123 127 130 132 130 127 124 122 121 121 123 125 127 128 129 134 142 151 158 162 165 166 167 169
105 117 130 139 142 143 142 140 136 129 122 118 117 120 123 125 129 131 131 130 128 127 125 124 123 126 132 135 136 138 143 149 157 163 169 172 168 166
108 118 127 137 144 147 147 144 141 135 127 122 121 122 125 126 128 131 133 133 133 133 132 131 130 131 137 144 146 148 150 151 153 155 159 163 164 164
Height
5634 5628 5621 5614 5606 5600 5593 5588 5584 5582 5580 5574 5569 5565 5563 5563 5563 5563 5564 5563 5564 5564 5566 5568 5571 5573 5577 5580 5584 5588 5592 5597 5603 5609 5615 5622 5630 5639
5619 5612 5604 5597 5590 5582 5576 5570 5564 5562 5562 5560 5555 5552 5550 5550 5550 5552 5552 5552 5553 5553 5555 5556 5559 5561 5564 5567 5570 5574 5578 5582 5587 5593 5599 5606 5615 5623
5603 5595 5588 5580 5573 5565 5559 5554 5549 5545 5544 5544 5541 5539 5537 5538 5539 5541 5542 5542 5543 5543 5545 5546 5547 5549 5551 5554 5556 5559 5563 5567 5572 5578 5584 5591 5599 5608
5587 5579 5571 5563 5556 5549 5544 5539 5535 5531 5529 5530 5529 5527 5526 5527 5530 5531 5532 5533 5534 5534 5535 5536 5537 5539 5540 5541 5543 5546 5549 5552 5557 5562 5569 5577 5585 5593
5570 5563 5555 5548 5541 5535 5531 5527 5523 5519 5517 5516 5517 5516 5517 5519 5521 5523 5524 5525 5525 5526 5527 5528 5528 5529 5529 5530 5531 5533 5535 5539 5543 5548 5554 5561 5570 5579
5554 5547 5540 5534 5528 5524 5519 5515 5512 5509 5507 5506 5507 5508 5509 5511 5514 5515 5517 5518 5518 5519 5520 5520 5520 5519 5519 5519 5520 5521 5522 5525 5529 5534 5540 5548 5556 5566
5540 5533 5527 5522 5517 5512 5509 5505 5502 5500 5499 5499 5500 5501 5503 5505 5508 5509 5511 5512 5513 5513 5513 5513 5512 5511 5510 5509 5508 5508 5509 5511 5515 5520 5527 5535 5545 5555
5529 5522 5516 5511 5507 5503 5499 5497 5495 5493 5493 5493 5494 5496 5499 5501 5503 5505 5506 5507 5508 5509 5508 5507 5505 5503 5500 5498 5496 5495 5495 5496 5501 5507 5515 5524 5534 5545
5518 5512 5506 5502 5498 5495 5492 5490 5489 5488 5489 5489 5491 5493 5496 5498 5500 5502 5503 5504 5505 5505 5504 5502 5499 5497 5493 5490 5487 5485 5484 5485 5489 5496 5505 5515 5526 5538
5509 5504 5499 5494 5491 5488 5486 5485 5485 5485 5486 5487 5489 5492 5494 5496 5498 5500 5501 5502 5502 5502 5500 5499 5496 5492 5488 5484 5481 5479 5477 5476 5480 5488 5498 5509 5521 5533
5501 5496 5492 5488 5485 5483 5482 5482 5483 5484 5485 5487 5489 5491 5493 5495 5497 5499 5501 5501 5501 5501 5499 5497 5494 5490 5486 5482 5479 5476 5475 5475 5478 5486 5496 5507 5519 5531
5494 5490 5486 5484 5482 5480 5480 5481 5482 5484 5485 5488 5490 5492 5494 5496 5498 5499 5501 5501 5501 5501 5500 5498 5495 5491 5488 5484 5480 5479 5478 5479 5483 5490 5499 5510 5521 5533
5488 5485 5483 5481 5480 5479 5480 5481 5483 5485 5487 5489 5491 5494 5496 5497 5499 5500 5501 5502 5503 5503 5502 5501 5498 5495 5492 5489 5486 5485 5486 5488 5492 5498 5505 5515 5526 5539
5485 5482 5480 5479 5479 5479 5481 5483 5485 5487 5489 5492 5494 5496 5498 5499 5501 5502 5503 5504 5505 5506 5506 5505 5503 5501 5499 5497 5496 5495 5496 5498 5502 5508 5515 5522 5532 5543
5482 5481 5480 5480 5480 5482 5483 5485 5488 5490 5493 5495 5497 5499 5500 5502 5503 5504 5505 5507 5508 5509 5510 5510 5509 5508 5508 5508 5507 5507 5509 5510 5514 5520 5526 5533 5541 5550
5482 5482 5481 5482 5483 5485 5487 5489 5492 5494 5496 5498 5500 5502 5503 5505 5506 5507 5509 5511 5513 5514 5515 5516 5516 5516 5517 5518 5519 5520 5523 5525 5527 5533 5539 5545 5552 5560
5483 5483 5484 5485 5487 5489 5491 5494 5496 5498 5500 5502 5504 5505 5506 5508 5509 5511 5514 5516 5518 5520 5522 5523 5524 5524 5526 5528 5530 5532 5534 5537 5541 5546 5552 5559 5565 5572
5486 5486 5487 5488 5491 5493 5496 5498 5501 5503 5505 5506 5507 5508 5510 5512 5514 5516 5519 5521 5523 5525 5527 5529 5531 5533 5535 5537 5539 5542 5545 5549 5553 5558 5563 5570 5575 5581
5489 5489 5490 5492 5495 5498 5500 5503 5505 5507 5509 5510 5511 5512 5514 5516 5518 5521 5524 5526 5529 5531 5533 5535 5537 5539 5542 5546 5548 5550 5554 5558 5562 5566 5571 5577 5583 5589
5492 5493 5494 5496 5499 5502 5505 5507 5509 5511 5513 5514 5515 5517 5519 5521 5524 5527 5530 5532 5535 5537 5540 5542 5544 5546 5548 5552 5555 5558 5561 5565 5568 5573 5577 5582 5587 5592
5495 5496 5498 5500 5503 5506 5509 5511 5514 5516 5517 5519 5520 5522 5524 5526 5529 5532 5535 5538 5540 5543 5545 5548 5550 5552 5554 5557 5560 5563 5567 5570 5573 5577 5581 5585 5590 5594
5499 5500 5502 5504 5507 5510 5513 5515 5518 5520 5522 5524 5525 5527 5529 5532 5534 5537 5540 5543 5545 5548 5550 5553 5555 5557 5559 5561 5564 5567 5570 5574 5577 5581 5584 5588 5592 5596
5503 5504 5506 5508 5511 5514 5516 5519 5522 5524 5526 5528 5530 5532 5534 5537 5539 5542 5545 5547 5550 5552 5554 5556 5559 5561 5563 5565 5567 5570 5573 5577 5580 5584 5587 5591 5595 5598